Satellite: NOAA-17 Catalog number: 27453 Epoch time: 09119.73086370 Element set: 0392 Inclination: 098.4873 deg RA of node: 180.4605 deg Eccentricity: 0.0010697 Arg of perigee: 263.5547 deg Mean anomaly: 096.4404 deg Mean motion: 14.24058174 rev/day Decay rate: -9.4e-07 rev/day^2 Epoch rev: 35585 Checksum: 329
Satellite: NOAA-14 Catalog number: 23455 Epoch time: 09119.76220511 Element set: 0598 Inclination: 098.9105 deg RA of node: 197.6076 deg Eccentricity: 0.0008756 Arg of perigee: 332.9268 deg Mean anomaly: 027.1448 deg Mean motion: 14.13763141 rev/day Decay rate: 2.77e-06 rev/day^2 Epoch rev: 73908 Checksum: 327
Satellite: NOAA-18 Catalog number: 28654 Epoch time: 09119.76551991 Element set: 0881 Inclination: 098.9053 deg RA of node: 063.3873 deg Eccentricity: 0.0015008 Arg of perigee: 136.8546 deg Mean anomaly: 223.3825 deg Mean motion: 14.11251864 rev/day Decay rate: 9.8e-07 rev/day^2 Epoch rev: 20312 Checksum: 319
Satellite: OKEAN-4 Catalog number: 23317 Epoch time: 09119.77949819 Element set: 0895 Inclination: 082.5425 deg RA of node: 019.6619 deg Eccentricity: 0.0022382 Arg of perigee: 159.7890 deg Mean anomaly: 200.4209 deg Mean motion: 14.82692296 rev/day Decay rate: 2.87e-06 rev/day^2 Epoch rev: 78519 Checksum: 353
Satellite: MET-2/21 Catalog number: 22782 Epoch time: 09119.80113197 Element set: 0447 Inclination: 082.5499 deg RA of node: 220.3817 deg Eccentricity: 0.0023850 Arg of perigee: 120.7027 deg Mean anomaly: 239.6492 deg Mean motion: 13.83636731 rev/day Decay rate: 4.2e-07 rev/day^2 Epoch rev: 79091 Checksum: 307
Satellite: NOAA-19 Catalog number: 33591 Epoch time: 09119.80603407 Element set: 0086 Inclination: 098.7444 deg RA of node: 066.8344 deg Eccentricity: 0.0014703 Arg of perigee: 024.5297 deg Mean anomaly: 335.6566 deg Mean motion: 14.10952713 rev/day Decay rate: -1.02e-06 rev/day^2 Epoch rev: 01161 Checksum: 294
Satellite: MET-3/5 Catalog number: 21655 Epoch time: 09119.90883332 Element set: 0684 Inclination: 082.5482 deg RA of node: 240.5918 deg Eccentricity: 0.0012817 Arg of perigee: 306.2527 deg Mean anomaly: 053.7412 deg Mean motion: 13.17018785 rev/day Decay rate: 5.1e-07 rev/day^2 Epoch rev: 85127 Checksum: 306
Satellite: NOAA-12 Catalog number: 21263 Epoch time: 09119.95931099 Element set: 0120 Inclination: 098.7718 deg RA of node: 127.9982 deg Eccentricity: 0.0011460 Arg of perigee: 288.3287 deg Mean anomaly: 071.6646 deg Mean motion: 14.25576043 rev/day Decay rate: 1.4e-07 rev/day^2 Epoch rev: 93352 Checksum: 318
Satellite: RESURS Catalog number: 25394 Epoch time: 09120.66720404 Element set: 201 Inclination: 098.3472 deg RA of node: 155.4280 deg Eccentricity: 0.0002043 Arg of perigee: 020.9244 deg Mean anomaly: 339.2019 deg Mean motion: 14.24181835 rev/day Decay rate: -3.4e-07 rev/day^2 Epoch rev: 56163 Checksum: 258
Satellite: OKEAN-0 Catalog number: 25860 Epoch time: 09120.77490461 Element set: 664 Inclination: 097.7831 deg RA of node: 103.8490 deg Eccentricity: 0.0001248 Arg of perigee: 042.9901 deg Mean anomaly: 317.1403 deg Mean motion: 14.73569752 rev/day Decay rate: 1.1e-07 rev/day^2 Epoch rev: 52616 Checksum: 288
Satellite: FENGYUN1 Catalog number: 25730 Epoch time: 09120.81082191 Element set: 744 Inclination: 098.7538 deg RA of node: 092.3970 deg Eccentricity: 0.0022499 Arg of perigee: 357.0866 deg Mean anomaly: 003.0169 deg Mean motion: 14.07964973 rev/day Decay rate: -4.7e-07 rev/day^2 Epoch rev: 51365 Checksum: 317
/EX SB KEPS @ AMSAT $ORB09120.M Orbital Elements 09120.MISC
HR AMSAT ORBITAL ELEMENTS FOR MANNED AND MISCELLANEOUS SATELLITES FROM WA5QGD FORT WORTH,TX April 30, 2009 Send Subscribe/unsubscribe to KEPS at http://www.amsat.org/mailman/listinfo/keps BID: ORB09120.M TO ALL RADIO AMATEURS BT
Satellite: CO-66 Catalog number: 32791 Epoch time: 09119.37836480 Element set: 0336 Inclination: 097.9483 deg RA of node: 183.6386 deg Eccentricity: 0.0015627 Arg of perigee: 185.3470 deg Mean anomaly: 174.7572 deg Mean motion: 14.81420088 rev/day Decay rate: 1.47e-06 rev/day^2 Epoch rev: 05418 Checksum: 338
Satellite: PO-34 Catalog number: 25520 Epoch time: 09119.45209724 Element set: 0240 Inclination: 028.4601 deg RA of node: 221.2057 deg Eccentricity: 0.0005431 Arg of perigee: 137.1903 deg Mean anomaly: 222.9121 deg Mean motion: 15.17327788 rev/day Decay rate: 2.99e-06 rev/day^2 Epoch rev: 58124 Checksum: 275
Satellite: CO-58 Catalog number: 28895 Epoch time: 09119.67136668 Element set: 0290 Inclination: 098.0675 deg RA of node: 011.6338 deg Eccentricity: 0.0018589 Arg of perigee: 136.7369 deg Mean anomaly: 223.5305 deg Mean motion: 14.59762864 rev/day Decay rate: 2.17e-06 rev/day^2 Epoch rev: 18665 Checksum: 360
Satellite: CAPE1 Catalog number: 31130 Epoch time: 09119.83752121 Element set: 0589 Inclination: 097.9959 deg RA of node: 175.1395 deg Eccentricity: 0.0104031 Arg of perigee: 075.5365 deg Mean anomaly: 285.7329 deg Mean motion: 14.52051946 rev/day Decay rate: -8.0e-08 rev/day^2 Epoch rev: 10767 Checksum: 313
Satellite: AAUSAT2 Catalog number: 32788 Epoch time: 09119.85325114 Element set: 0346 Inclination: 097.9471 deg RA of node: 184.1296 deg Eccentricity: 0.0015489 Arg of perigee: 185.5815 deg Mean anomaly: 174.5195 deg Mean motion: 14.81707166 rev/day Decay rate: -7.9e-07 rev/day^2 Epoch rev: 05429 Checksum: 340
Satellite: RS-30 Catalog number: 32953 Epoch time: 09120.45935586 Element set: 292 Inclination: 082.4974 deg RA of node: 286.2953 deg Eccentricity: 0.0018167 Arg of perigee: 283.7282 deg Mean anomaly: 076.1778 deg Mean motion: 12.43000691 rev/day Decay rate: 1.0e-07 rev/day^2 Epoch rev: 4246 Checksum: 309
Satellite: MAST Catalog number: 31126 Epoch time: 09120.74141999 Element set: 583 Inclination: 097.9915 deg RA of node: 177.7087 deg Eccentricity: 0.0095831 Arg of perigee: 067.4105 deg Mean anomaly: 293.7222 deg Mean motion: 14.53492529 rev/day Decay rate: 9.3e-07 rev/day^2 Epoch rev: 10814 Checksum: 318
Satellite: DO-64 Catalog number: 32789 Epoch time: 09120.75212448 Element set: 354 Inclination: 097.9504 deg RA of node: 185.1532 deg Eccentricity: 0.0015568 Arg of perigee: 181.4756 deg Mean anomaly: 178.6413 deg Mean motion: 14.81679958 rev/day Decay rate: 6.25e-06 rev/day^2 Epoch rev: 5442 Checksum: 338
Satellite: COMPASS Catalog number: 32787 Epoch time: 09120.75935354 Element set: 344 Inclination: 097.9441 deg RA of node: 184.9754 deg Eccentricity: 0.0015642 Arg of perigee: 182.2957 deg Mean anomaly: 177.8184 deg Mean motion: 14.81587813 rev/day Decay rate: 3.32e-06 rev/day^2 Epoch rev: 5442 Checksum: 329
Satellite: FALCON Catalog number: 30776 Epoch time: 09120.81002071 Element set: 557 Inclination: 035.4341 deg RA of node: 026.8494 deg Eccentricity: 0.0001737 Arg of perigee: 262.9556 deg Mean anomaly: 097.0963 deg Mean motion: 15.03226017 rev/day Decay rate: 3.13e-06 rev/day^2 Epoch rev: 11796 Checksum: 278
Satellite: HUBBLE Catalog number: 20580 Epoch time: 09120.82820089 Element set: 377 Inclination: 028.4685 deg RA of node: 051.3398 deg Eccentricity: 0.0003901 Arg of perigee: 159.8542 deg Mean anomaly: 200.2206 deg Mean motion: 15.00478951 rev/day Decay rate: 3.00e-06 rev/day^2 Epoch rev: 84273 Checksum: 278
Satellite: ISS Catalog number: 25544 Epoch time: 09120.90148148 Element set: 772 Inclination: 051.6396 deg RA of node: 189.3708 deg Eccentricity: 0.0009000 Arg of perigee: 309.9180 deg Mean anomaly: 027.5376 deg Mean motion: 15.72517156 rev/day Decay rate: 9.021e-05 rev/day^2 Epoch rev: 59850 Checksum: 305
/EX
participants (1)
-
Ray Hoad